{"data":{"norad_id":67212,"epoch":"2026-05-24T23:21:34.085952Z","epoch_age_seconds":74417,"freshness":"FRESH","line1":"1 67212U 25304W   26144.97331118 -.00000231  00000+0 -11538-4 0  9991","line2":"2 67212  70.0023 342.0188 0003077 262.8886  97.1923 14.98323013 25311","mean_motion":14.98323013,"eccentricity":0.0003077,"inclination_deg":70.0023,"raan_deg":342.0188,"arg_perigee_deg":262.8886,"mean_anomaly_deg":97.1923,"bstar":-1.1538e-5,"rev_number":2531,"period_min":96.107447293143,"perigee_km":569.93891674856,"apogee_km":574.21607875048,"semimajor_km":6950.2144977495,"source":"CELESTRAK","updated_at":"2026-05-25T13:38:21.512482Z"}}